This is the latest recevied weather packets stored in our database for station/object F5OZP-13. If no packets are shown the sender has not sent any weather packets the latest 10 day(s).
| Time | Temp. | Humidity | Pressure | Rain* | Wind** | Luminosity | Snow |
|---|---|---|---|---|---|---|---|
| 1778080894 | 18.89° C | 99% | 1015.5 hPa | - | - | 0 W/m² | - |
| 1778080578 | 18.33° C | 99% | 1015.5 hPa | - | - | 11 W/m² | - |
| 1778080270 | 16.67° C | 99% | 1015.5 hPa | - | - | 0 W/m² | - |
| 1778079961 | 17.22° C | 99% | 1015.5 hPa | - | - | 0 W/m² | - |
| 1778079653 | 16.67° C | 99% | 1015.6 hPa | - | - | 0 W/m² | - |
| 1778079345 | 17.78° C | 99% | 1015.5 hPa | - | - | 0 W/m² | - |
| 1778079045 | 17.22° C | 99% | 1015.5 hPa | - | - | 0 W/m² | - |
| 1778078729 | 17.78° C | 99% | 1015.5 hPa | - | - | 0 W/m² | - |
| 1778078421 | 17.22° C | 99% | 1015.5 hPa | - | - | 0 W/m² | - |
| 1778078113 | 16.67° C | 99% | 1015.6 hPa | - | - | 0 W/m² | - |
| 1778077804 | 17.78° C | 99% | 1015.6 hPa | - | - | 0 W/m² | - |
| 1778077496 | 18.33° C | 99% | 1015.7 hPa | - | - | 0 W/m² | - |
| 1778077196 | 18.33° C | 99% | 1015.6 hPa | - | - | 0 W/m² | - |
| 1778076880 | 16.67° C | 99% | 1015.5 hPa | - | - | 1 W/m² | - |
| 1778076576 | 17.22° C | 99% | 1015.6 hPa | - | - | 0 W/m² | - |
| 1778076268 | 17.22° C | 99% | 1015.6 hPa | - | - | 0 W/m² | - |
| 1778075960 | 17.78° C | 99% | 1015.5 hPa | - | - | 0 W/m² | - |
| 1778075652 | 17.78° C | 99% | 1015.6 hPa | - | - | 0 W/m² | - |
| 1778075352 | 18.33° C | 99% | 1015.6 hPa | - | - | 3 W/m² | - |
| 1778075035 | 17.78° C | 99% | 1015.5 hPa | - | - | 0 W/m² | - |
| 1778074727 | 17.78° C | 99% | 1015.5 hPa | - | - | 0 W/m² | - |
| 1778074419 | 17.22° C | 99% | 1015.5 hPa | - | - | 0 W/m² | - |
| 1778074111 | 17.78° C | 99% | 1015.4 hPa | - | - | 0 W/m² | - |
| 1778073803 | 17.22° C | 99% | 1015.5 hPa | - | - | 0 W/m² | - |
| 1778073503 | 17.78° C | 99% | 1015.4 hPa | - | - | 0 W/m² | - |
* Rain since midnight (hover to see other rain measurements)
** Current wind speed in m/s (hover to see current wind gust speed)